Hourly Data Report for May 06, 2021

WIARTON A
ONTARIO
Current Station Operator: NAVCAN

44°44'39.000" N
81°06'31.000" W
221.90 m
6119499
71633
YVV

Download Data

Hourly Data (May 2021)
Hourly Data Report for May 6, 2021
TIME
LST
Temp Definition
°C
Dew Point Definition
°C
Rel Hum Definition
%
Precip. Amount Definition
mm

Wind Dir Definition
10's deg

Wind Spd Definition
km/h
Visibility Definition
km
Stn Press Definition
kPa
Hmdx Definition


Wind Chill Definition


Weather Definition


00:00 4.2 0.9 79   29 7 24.1 99.16     LegendNANA
01:00 4.2 1.1 80   27 3 24.1 99.15     Mostly Cloudy
02:00 2.3 0.1 86   36 1 24.1 99.12     LegendNANA
03:00 1.1 0.6 97   22 8 24.1 99.12     LegendNANA
04:00 1.4 0.6 95   24 7 24.1 99.14     Mainly Clear
05:00 0.1 -0.3 97   22 6 24.1 99.15     LegendNANA
06:00 1.2 1.0 98   24 6 24.1 99.17     LegendNANA
07:00 3.3 2.5 94   27 9 24.1 99.23     Mostly Cloudy
08:00 4.7 2.5 86   25 10 24.1 99.25     LegendNANA
09:00 5.4 2.2 80   25 14 24.1 99.27     LegendNANA
10:00 5.7 1.9 76   29 13 24.1 99.25     Mostly Cloudy
11:00 6.8 2.5 74   25 10 24.1 99.23     LegendNANA
12:00 7.4 2.5 71   27 19 24.1 99.21     LegendNANA
13:00 8.7 4.3 74   25 16 24.1 99.16     Mainly Clear
14:00 8.0 2.3 67   26 18 24.1 99.12     LegendNANA
15:00 8.6 1.9 63   27 16 24.1 99.07     LegendNANA
16:00 8.3 1.3 61   27 13 24.1 99.04     Mainly Clear
17:00 8.0 0.8 60   28 17 24.1 99.04     LegendNANA
18:00 6.9 1.7 69   26 14 24.1 99.04     LegendNANA
19:00 5.5 1.1 73   26 10 24.1 99.04     Mostly Cloudy
20:00 4.4 0.7 77   25 10 24.1 99.02     LegendNANA
21:00 3.3 1.0 85   17 5 24.1 99.04     LegendNANA
22:00 3.5 0.7 82   25 5 24.1 99.03     Mainly Clear
23:00 3.0 0.8 85   24 7 24.1 98.97     LegendNANA

Notes on Data Quality.

Legend

  • E = Estimated
  • M = Missing
  • NA = Not Available*
  • [empty] = Indicates an unobserved value
Date modified: